When you browse on this site, cookies collect data to enhance your experience and personalize the content and advertising you see.
Visit our Privacy Policy to learn more. By continuing to use the site, you agree to this use of cookies and data.
  • In Portugal
  • List of Countries
  • For 7 days
  • Water Temperature
  • Weather Map
  • Weather Widgets
  • user-avatar
    Login

    Hourly Weather Lusaka

    Today, 15 October, Tuesday

    Time Temperature Precipitation Wind Pressure Humidity
    00:00 +22°C° 0 mm 3 mps 657 mmHg 35%
    01:00 +21°C° 0 mm 3 mps 657 mmHg 40%
    02:00 +20°C° 0 mm 3 mps 656 mmHg 44%
    03:00 +20°C° 0 mm 4 mps 656 mmHg 51%
    04:00 +19°C° 0 mm 4 mps 657 mmHg 57%
    05:00 +18°C° 0 mm 4 mps 657 mmHg 64%
    06:00 +20°C° 0 mm 4 mps 658 mmHg 59%
    07:00 +22°C° 0 mm 5 mps 659 mmHg 54%
    08:00 +23°C° 0 mm 5 mps 660 mmHg 48%
    09:00 +27°C° 0 mm 5 mps 660 mmHg 39%
    10:00 +29°C° 0 mm 4 mps 660 mmHg 30%
    11:00 +32°C° 0 mm 4 mps 661 mmHg 21%
    12:00 +33°C° 0 mm 4 mps 660 mmHg 19%
    13:00 +34°C° 0 mm 4 mps 659 mmHg 17%
    14:00 +35°C° 0 mm 4 mps 659 mmHg 16%
    15:00 +34°C° 0 mm 5 mps 658 mmHg 16%
    16:00 +34°C° 0 mm 5 mps 658 mmHg 17%
    17:00 +33°C° 0 mm 5 mps 657 mmHg 17%
    18:00 +30°C° 0 mm 5 mps 657 mmHg 20%
    19:00 +27°C° 0 mm 4 mps 657 mmHg 23%
    20:00 +25°C° 0 mm 4 mps 657 mmHg 26%
    21:00 +25°C° 0 mm 4 mps 657 mmHg 27%
    22:00 +24°C° 0 mm 3 mps 657 mmHg 27%
    23:00 +24°C° 0 mm 3 mps 658 mmHg 28%

    Tomorrow, 16 October, Wednesday

    Time Temperature Precipitation Wind Pressure Humidity
    00:00 +22°C° 0 mm 4 mps 657 mmHg 31%
    01:00 +21°C° 0 mm 4 mps 657 mmHg 35%
    02:00 +21°C° 0 mm 4 mps 657 mmHg 39%
    03:00 +20°C° 0 mm 4 mps 657 mmHg 44%
    04:00 +19°C° 0 mm 4 mps 658 mmHg 49%
    05:00 +19°C° 0 mm 4 mps 658 mmHg 55%
    06:00 +20°C° 0 mm 5 mps 659 mmHg 52%
    07:00 +21°C° 0 mm 5 mps 660 mmHg 50%
    08:00 +22°C° 0 mm 6 mps 660 mmHg 48%
    09:00 +25°C° 0 mm 5 mps 660 mmHg 41%
    10:00 +28°C° 0 mm 5 mps 660 mmHg 35%
    11:00 +30°C° 0 mm 5 mps 660 mmHg 28%
    12:00 +32°C° 0 mm 5 mps 660 mmHg 25%
    13:00 +33°C° 0 mm 5 mps 659 mmHg 22%
    14:00 +33°C° 0 mm 5 mps 659 mmHg 19%
    15:00 +33°C° 0 mm 5 mps 658 mmHg 19%
    16:00 +32°C° 0 mm 5 mps 658 mmHg 18%
    17:00 +32°C° 0 mm 4 mps 657 mmHg 18%
    18:00 +28°C° 0 mm 4 mps 657 mmHg 22%
    19:00 +26°C° 0 mm 3 mps 657 mmHg 26%
    20:00 +22°C° 0 mm 3 mps 657 mmHg 30%
    21:00 +21°C° 0 mm 3 mps 657 mmHg 31%
    22:00 +21°C° 0 mm 3 mps 657 mmHg 32%
    23:00 +20°C° 0 mm 3 mps 657 mmHg 33%

    Day after tomorrow, 17 October, Thursday

    Time Temperature Precipitation Wind Pressure Humidity
    00:00 +19°C° 0 mm 4 mps 657 mmHg 38%
    01:00 +19°C° 0 mm 4 mps 657 mmHg 43%
    02:00 +18°C° 0 mm 4 mps 657 mmHg 48%
    03:00 +18°C° 0 mm 4 mps 657 mmHg 53%
    04:00 +17°C° 0 mm 4 mps 657 mmHg 58%
    05:00 +17°C° 0 mm 4 mps 658 mmHg 63%
    06:00 +17°C° 0 mm 5 mps 658 mmHg 56%
    07:00 +20°C° 0 mm 5 mps 659 mmHg 49%
    08:00 +21°C° 0 mm 6 mps 660 mmHg 41%
    09:00 +23°C° 0 mm 5 mps 660 mmHg 34%
    10:00 +27°C° 0 mm 5 mps 660 mmHg 26%
    11:00 +29°C° 0 mm 4 mps 661 mmHg 18%
    12:00 +30°C° 0 mm 4 mps 660 mmHg 16%
    13:00 +32°C° 0 mm 4 mps 659 mmHg 13%
    14:00 +33°C° 0 mm 4 mps 658 mmHg 11%
    15:00 +33°C° 0 mm 4 mps 658 mmHg 12%
    16:00 +32°C° 0 mm 4 mps 657 mmHg 12%
    17:00 +30°C° 0 mm 4 mps 657 mmHg 13%
    18:00 +27°C° 0 mm 4 mps 657 mmHg 17%
    19:00 +25°C° 0 mm 3 mps 656 mmHg 21%
    20:00 +21°C° 0 mm 3 mps 656 mmHg 24%
    21:00 +20°C° 0 mm 2 mps 656 mmHg 26%
    22:00 +19°C° 0 mm 2 mps 656 mmHg 28%
    23:00 +19°C° 0 mm 2 mps 656 mmHg 30%

    18 October, Friday

    Time Temperature Precipitation Wind Pressure Humidity
    00:00 +18°C° 0 mm 2 mps 656 mmHg 33%
    01:00 +18°C° 0 mm 3 mps 656 mmHg 35%
    02:00 +18°C° 0 mm 3 mps 656 mmHg 38%
    03:00 +18°C° 0 mm 3 mps 656 mmHg 43%
    04:00 +18°C° 0 mm 4 mps 656 mmHg 48%
    05:00 +17°C° 0 mm 4 mps 657 mmHg 54%
    06:00 +19°C° 0 mm 4 mps 657 mmHg 50%
    07:00 +21°C° 0 mm 5 mps 658 mmHg 46%
    08:00 +22°C° 0 mm 5 mps 659 mmHg 43%
    09:00 +26°C° 0 mm 4 mps 659 mmHg 34%
    10:00 +29°C° 0 mm 4 mps 659 mmHg 26%
    11:00 +33°C° 0 mm 3 mps 659 mmHg 17%
    12:00 +34°C° 0 mm 4 mps 659 mmHg 15%
    13:00 +35°C° 0 mm 4 mps 658 mmHg 13%
    14:00 +36°C° 0 mm 4 mps 657 mmHg 11%
    15:00 +35°C° 0 mm 4 mps 657 mmHg 12%
    16:00 +34°C° 0 mm 4 mps 656 mmHg 13%
    17:00 +33°C° 0 mm 4 mps 656 mmHg 14%
    18:00 +29°C° 0 mm 4 mps 656 mmHg 17%
    19:00 +27°C° 0 mm 3 mps 655 mmHg 21%
    20:00 +24°C° 0 mm 2 mps 655 mmHg 24%
    21:00 +23°C° 0 mm 2 mps 655 mmHg 26%
    22:00 +23°C° 0 mm 2 mps 655 mmHg 29%
    23:00 +21°C° 0 mm 2 mps 655 mmHg 31%

    19 October, Saturday

    Time Temperature Precipitation Wind Pressure Humidity
    00:00 +21°C° 0 mm 2 mps 655 mmHg 33%
    01:00 +20°C° 0 mm 2 mps 655 mmHg 36%
    02:00 +20°C° 0 mm 3 mps 655 mmHg 38%
    03:00 +20°C° 0 mm 3 mps 655 mmHg 40%
    04:00 +19°C° 0 mm 3 mps 655 mmHg 42%
    05:00 +19°C° 0 mm 3 mps 655 mmHg 44%
    06:00 +21°C° 0 mm 3 mps 656 mmHg 40%
    07:00 +23°C° 0 mm 4 mps 657 mmHg 37%
    08:00 +27°C° 0 mm 5 mps 658 mmHg 34%
    09:00 +29°C° 0 mm 4 mps 658 mmHg 28%
    10:00 +33°C° 0 mm 3 mps 659 mmHg 22%
    11:00 +36°C° 0 mm 3 mps 659 mmHg 16%
    12:00 +37°C° 0 mm 2 mps 658 mmHg 14%
    13:00 +38°C° 0 mm 2 mps 658 mmHg 12%
    14:00 +39°C° 0 mm 2 mps 657 mmHg 10%
    15:00 +38°C° 0 mm 3 mps 657 mmHg 11%
    16:00 +37°C° 0 mm 4 mps 656 mmHg 12%
    17:00 +35°C° 0 mm 5 mps 655 mmHg 13%
    18:00 +33°C° 0 mm 4 mps 655 mmHg 16%
    19:00 +29°C° 0 mm 3 mps 655 mmHg 19%
    20:00 +26°C° 0 mm 3 mps 655 mmHg 23%
    21:00 +25°C° 0 mm 2 mps 655 mmHg 26%
    22:00 +24°C° 0 mm 2 mps 655 mmHg 29%
    23:00 +23°C° 0 mm 2 mps 655 mmHg 33%

    20 October, Sunday

    Time Temperature Precipitation Wind Pressure Humidity
    00:00 +23°C° 0 mm 2 mps 655 mmHg 33%
    01:00 +21°C° 0 mm 2 mps 655 mmHg 34%
    02:00 +21°C° 0 mm 2 mps 654 mmHg 35%
    03:00 +21°C° 0 mm 2 mps 655 mmHg 35%
    04:00 +21°C° 0 mm 2 mps 655 mmHg 35%
    05:00 +20°C° 0 mm 3 mps 656 mmHg 36%
    06:00 +24°C° 0 mm 3 mps 657 mmHg 32%
    07:00 +26°C° 0 mm 4 mps 658 mmHg 29%
    08:00 +29°C° 0 mm 4 mps 659 mmHg 25%
    09:00 +32°C° 0 mm 4 mps 659 mmHg 22%
    10:00 +34°C° 0 mm 3 mps 659 mmHg 18%
    11:00 +37°C° 0 mm 3 mps 659 mmHg 15%
    12:00 +37°C° 0 mm 3 mps 659 mmHg 13%
    13:00 +38°C° 0 mm 3 mps 658 mmHg 12%
    14:00 +39°C° 0 mm 3 mps 657 mmHg 10%
    15:00 +38°C° 0 mm 4 mps 657 mmHg 11%
    16:00 +37°C° 0 mm 4 mps 656 mmHg 12%
    17:00 +36°C° 0 mm 4 mps 656 mmHg 12%
    18:00 +33°C° 0 mm 4 mps 656 mmHg 16%
    19:00 +30°C° 0 mm 3 mps 656 mmHg 20%
    20:00 +27°C° 0 mm 3 mps 656 mmHg 23%
    21:00 +27°C° 0 mm 3 mps 656 mmHg 25%
    22:00 +26°C° 0 mm 3 mps 656 mmHg 26%
    23:00 +25°C° 0 mm 3 mps 656 mmHg 27%
    Show more